Temp
2 1 1 0 -0 -0 -0 -0 -0 -1 -1 -1 -1 -2 -2 -1 -2 -3 -4 -4 -2 -1 0 -1 -3 -3 -3
2 1 1 -0 -1 -1 -1 -1 -1 -1 -2 -3 -2 -2 -2 -2 -3 -3 -3 -4 -2 -1 -1 -0 -2 -3 -3
0 1 0 -0 -1 -1 -1 -1 -1 -2 -2 -3 -3 -3 -3 -2 -5 -4 -2 -3 -3 -2 -2 -2 -1 -3 -4
-1 -1 -1 -1 -1 -1 -1 -2 -2 -2 -3 -3 -3 -3 -4 -4 -3 -3 -3 -3 -3 -3 -4 -2 -2 -4 -3
-1 -1 -1 -1 -1 -3 -3 -3 -2 -2 -3 -3 -4 -4 -4 -4 -4 -3 -3 -3 -3 -4 -3 -3 -5 -5 -4
-3 -2 -1 -2 -2 -3 -4 -4 -4 -3 -4 -4 -5 -4 -4 -4 -4 -4 -4 -3 -4 -3 -3 -3 -4 -4 -6
-3 -2 -2 -2 -3 -4 -4 -5 -5 -5 -6 -5 -5 -4 -4 -4 -4 -4 -4 -4 -4 -3 -3 -3 -4 -4 -4
-4 -3 -3 -3 -4 -4 -5 -6 -6 -5 -6 -7 -5 -5 -5 -4 -4 -5 -5 -4 -4 -4 -4 -4 -4 -4 -3
-3 -4 -4 -4 -4 -5 -5 -6 -6 -7 -7 -7 -6 -6 -6 -5 -4 -4 -4 -5 -5 -6 -6 -5 -5 -4 -4
-3 -4 -4 -4 -4 -6 -6 -5 -6 -7 -7 -7 -7 -7 -8 -6 -5 -6 -6 -6 -5 -5 -5 -5 -5 -5 -4
-4 -4 -5 -4 -5 -5 -6 -6 -7 -7 -7 -7 -7 -8 -9 -9 -7 -6 -6 -5 -5 -5 -5 -5 -5 -5 -5
-5 -5 -5 -4 -4 -5 -6 -6 -6 -7 -7 -8 -8 -9 -9 -9 -10 -8 -7 -6 -6 -5 -5 -5 -5 -5 -6
-6 -5 -5 -5 -5 -6 -6 -7 -7 -7 -8 -8 -8 -9 -10 -10 -10 -9 -8 -6 -6 -5 -5 -6 -6 -6 -5
-5 -5 -6 -6 -6 -6 -7 -7 -8 -8 -8 -8 -9 -9 -10 -10 -10 -9 -8 -9 -6 -6 -7 -7 -6 -6 -6
-6 -6 -6 -6 -7 -7 -7 -8 -8 -8 -8 -9 -9 -10 -10 -10 -10 -10 -8 -7 -7 -7 -8 -8 -7 -6 -6
-6 -7 -7 -7 -7 -7 -8 -8 -8 -9 -9 -9 -9 -10 -10 -9 -9 -8 -8 -8 -7 -8 -8 -8 -8 -7 -7
-7 -7 -7 -7 -7 -8 -8 -8 -9 -9 -10 -10 -10 -11 -11 -11 -8 -9 -9 -8 -9 -9 -8 -8 -8 -7 -7
Height
1479 1478 1476 1475 1474 1471 1469 1466 1464 1462 1461 1460 1458 1456 1454 1453 1451 1451 1451 1449 1448 1448 1446 1447 1448 1449 1448
1472 1470 1469 1468 1467 1465 1464 1462 1459 1457 1455 1453 1451 1450 1449 1448 1446 1445 1444 1443 1443 1442 1442 1442 1442 1443 1445
1464 1463 1462 1461 1459 1459 1457 1455 1453 1451 1448 1447 1445 1444 1443 1441 1441 1439 1438 1438 1438 1437 1437 1437 1437 1438 1438
1456 1456 1456 1455 1452 1450 1450 1449 1447 1445 1443 1440 1438 1437 1437 1436 1435 1433 1432 1432 1432 1433 1432 1432 1433 1433 1433
1448 1447 1447 1447 1446 1444 1443 1441 1439 1438 1435 1434 1433 1433 1432 1430 1428 1428 1427 1427 1426 1426 1426 1427 1427 1428 1427
1440 1438 1438 1439 1439 1438 1437 1435 1432 1432 1428 1428 1427 1426 1426 1424 1422 1421 1421 1420 1420 1420 1420 1420 1420 1420 1422
1428 1429 1429 1431 1431 1430 1430 1428 1426 1426 1423 1419 1419 1418 1418 1417 1416 1415 1414 1414 1414 1414 1413 1413 1414 1414 1414
1418 1419 1420 1422 1422 1422 1422 1420 1418 1417 1417 1412 1412 1410 1410 1409 1409 1408 1407 1407 1407 1407 1407 1407 1407 1407 1407
1410 1410 1412 1413 1413 1414 1413 1413 1411 1410 1409 1407 1405 1403 1402 1401 1402 1400 1400 1401 1401 1402 1402 1402 1401 1400 1399
1402 1402 1404 1403 1405 1406 1407 1406 1405 1403 1402 1401 1400 1400 1396 1393 1393 1394 1396 1397 1397 1396 1396 1395 1394 1392 1391
1392 1394 1395 1395 1396 1398 1398 1398 1397 1395 1395 1395 1393 1393 1392 1388 1386 1387 1388 1388 1388 1388 1388 1387 1386 1385 1383
1382 1383 1385 1386 1388 1389 1390 1390 1389 1388 1389 1388 1385 1385 1385 1381 1378 1378 1378 1378 1378 1377 1377 1377 1377 1376 1375
1373 1374 1376 1378 1379 1380 1381 1380 1380 1379 1379 1380 1379 1378 1377 1373 1370 1369 1370 1368 1369 1368 1368 1368 1368 1367 1366
1366 1367 1369 1369 1370 1371 1371 1372 1371 1369 1371 1372 1372 1371 1367 1365 1364 1361 1362 1360 1360 1360 1359 1357 1357 1357 1356
1358 1359 1360 1361 1361 1362 1362 1362 1361 1361 1361 1364 1363 1362 1359 1358 1355 1354 1353 1352 1351 1351 1350 1346 1345 1345 1345
1349 1350 1351 1352 1352 1353 1354 1354 1353 1353 1353 1354 1354 1353 1350 1347 1347 1345 1344 1343 1343 1342 1340 1336 1331 1333 1332
1340 1341 1343 1344 1345 1344 1345 1346 1345 1345 1344 1345 1345 1345 1342 1337 1338 1339 1335 1334 1332 1330 1330 1326 1320 1319 1319
Wind_Speed
25 24 24 22 22 22 22 23 23 22 21 20 21 21 21 21 17 13 12 15 15 16 14 11 8 9 7
27 27 27 25 23 23 22 22 22 21 21 20 20 21 21 20 18 21 21 19 16 17 16 16 14 12 9
29 28 28 27 26 25 23 22 22 22 23 23 22 21 20 20 17 22 20 20 20 21 18 19 18 14 13
30 30 29 27 26 26 25 23 23 22 23 23 21 17 15 16 20 23 23 22 20 19 17 19 15 15 17
32 32 31 27 25 24 26 25 25 25 20 14 16 15 18 20 22 21 22 22 20 20 19 17 15 16 17
33 34 31 28 23 23 24 26 28 24 20 22 21 21 20 22 21 20 20 21 21 20 21 20 20 18 14
34 33 29 26 23 25 26 26 27 23 24 30 27 25 22 21 20 21 19 19 21 23 23 22 21 20 21
37 34 30 30 28 27 26 25 26 27 24 28 27 30 27 23 18 17 21 23 22 19 19 20 22 22 23
34 28 32 31 27 24 25 23 26 28 26 26 33 28 22 25 21 18 17 15 12 13 22 23 23 24 26
30 26 29 27 24 22 23 28 29 26 22 19 24 25 22 25 6 3 4 17 25 23 23 22 22 25 28
27 26 27 27 25 26 28 27 28 30 32 29 31 27 26 30 33 30 27 23 23 23 21 22 23 25 28
26 28 27 25 23 27 25 23 26 30 28 28 28 26 27 33 35 34 32 29 27 26 24 22 22 20 23
31 31 28 26 25 25 25 24 26 28 27 24 26 27 29 33 36 37 34 32 29 25 23 25 25 26 29
31 30 28 28 28 28 25 25 25 28 25 25 26 28 31 32 32 35 32 32 31 30 30 31 29 28 28
30 31 30 29 29 28 27 25 27 28 28 26 28 27 26 26 30 33 34 34 32 31 28 32 32 31 30
31 29 29 30 28 27 23 24 26 28 29 28 24 24 26 29 29 32 30 30 28 28 29 35 39 36 35
27 27 26 27 26 25 24 25 28 28 29 26 24 22 26 32 31 27 30 28 30 34 34 36 40 39 35
Wind_Direction
289 292 292 293 293 296 299 303 303 302 298 293 288 287 284 285 283 277 274 284 283 272 275 275 272 275 283
289 291 293 295 296 297 300 301 301 300 297 292 288 286 284 281 275 273 278 282 282 277 273 270 267 266 275
285 288 290 293 296 297 299 299 300 297 295 293 290 288 281 275 265 272 284 282 281 278 272 266 268 270 263
279 284 287 290 292 297 295 297 297 296 295 292 289 283 271 277 281 281 283 281 276 273 270 272 267 263 268
276 279 282 285 287 291 293 296 298 301 301 294 283 276 284 288 282 277 277 275 272 270 270 267 263 267 271
272 274 280 282 285 287 290 294 300 302 300 290 287 285 289 292 281 279 273 266 265 268 269 270 270 271 268
271 269 277 280 286 282 286 287 288 295 292 292 293 296 300 293 282 282 271 261 265 268 270 268 265 265 267
263 270 275 278 278 277 281 282 284 288 290 287 298 299 301 292 287 277 272 272 272 267 261 265 270 274 274
270 264 265 269 270 267 265 274 280 286 286 286 295 299 298 295 293 279 265 262 247 265 274 273 274 275 273
269 256 262 264 261 256 264 262 273 283 286 271 287 294 300 299 292 161 244 273 280 278 276 273 273 273 273
266 254 255 256 254 254 260 261 266 268 275 276 281 284 279 283 290 290 288 284 283 279 277 276 273 271 276
265 263 259 259 259 264 269 262 267 273 275 271 274 276 282 286 286 291 293 293 292 291 289 287 278 274 271
260 261 263 268 271 271 270 271 274 271 267 264 268 275 278 279 283 286 292 293 293 294 294 294 289 280 275
261 263 264 264 268 273 271 274 272 270 264 267 272 278 280 278 280 282 284 282 293 294 297 294 289 283 281
258 258 258 263 270 270 268 268 268 269 272 273 274 279 275 273 273 274 280 285 289 293 292 292 290 291 288
265 259 261 268 270 269 265 266 267 270 275 279 281 282 278 274 271 279 282 284 288 291 290 291 293 296 295
257 256 257 262 264 264 264 265 268 271 278 280 279 276 278 279 290 288 290 291 293 292 295 294 294 298 298